Regional Weather Roundup
Issued by NWS Albany, NY

Home | Current Version | Previous Version | Text Only | Print | Product List | Glossary On
Versions: 1 2 3 4 5 6 7 8 9 10 11 12 13 14 15 16 17 18 19 20 21 22 23 24 25 26 27 28 29 30 31 32 33 34 35 36 37 38 39 40 41 42 43 44 45 46 47 48 49 50
000
ASUS41 KALY 231210
RWRALY

NEW YORK STATE HOURLY WEATHER ROUNDUP
NATIONAL WEATHER SERVICE ALBANY NY
800 AM EDT SAT AUG 23 2014

NOTE: "FAIR" INDICATES FEW OR NO CLOUDS BELOW 12,000 FEET WITH NO
SIGNIFICANT WEATHER AND/OR NO OBSTRUCTIONS TO VISIBILITY.

NYZ032-033-038>043-046>054-057>066-NYZ062>081-231300-
EAST


CITY           SKY/WX    TMP DP  RH WIND       PRES   REMARKS
ALBANY         CLOUDY    64  61  90 CALM      30.12R
GLENS FALLS    CLOUDY    62  60  93 N5        30.13R
POUGHKEEPSIE   CLOUDY    66  62  87 CALM      30.09R
MONTGOMERY     PTSUNNY   65  61  87 NE5       30.10R
WHITE PLAINS   MOSUNNY   66  60  81 VRB7      30.09R
ISLIP          PTSUNNY   68  61  78 NE12      30.06S
NEW YORK CITY  PTSUNNY   68  60  75 E12       30.08R
CENTRAL PARK   CLOUDY    69  59  70 NE10      30.11R
$$

NYZ005>009-017-018-044>046-055-056-231300-
CENTRAL


CITY           SKY/WX    TMP DP  RH WIND       PRES   REMARKS
FULTON         CLOUDY    65  60  84 E6        30.07R
SYRACUSE       CLOUDY    65  61  87 E8        30.07R
ROME           CLOUDY    64  61  90 E8        30.12R
ELMIRA         CLOUDY    66  63  90 E3        30.05S
BINGHAMTON     CLOUDY    62  59  90 SE5       30.09R
MONTICELLO     CLOUDY    61  59  94 E8        30.13S
$$

NYZ026>034-041>043-231300-
NORTH


CITY           SKY/WX    TMP DP  RH WIND       PRES   REMARKS
WATERTOWN      CLOUDY    65  60  84 NE6       30.09R
FORT DRUM      NOT AVBL
MASSENA        MOSUNNY   64  61  90 E9        30.13S
SARANAC LAKE   MOSUNNY   60  57  89 E8        30.15R
PLATTSBURGH    CLOUDY    62  60  93 W3        30.15R
$$

NYZ001>004-010>016-019>021-231300-
WEST


CITY           SKY/WX    TMP DP  RH WIND       PRES   REMARKS
NIAGARA FALLS  DRIZZLE   65  64  97 NE10      30.05R FOG
BUFFALO        CLOUDY    67  64  90 NE6       30.05R
DUNKIRK        CLOUDY    66  65  96 VRB6G22   30.04R FOG
JAMESTOWN      CLOUDY    64  63  94 NE3       30.06R
WELLSVILLE     FOG       65  63  93 CALM      30.08S VSB 1
ROCHESTER      CLOUDY    68  66  93 CALM      30.05R FOG
PENN YAN       CLOUDY    67  64  90 E3        30.06R
$$

             KEY
       WCI = WIND CHILL INDEX
       VSB = VISIBILITY
       HX  = HEAT INDEX
$$


USA.gov is the U.S. government's official web portal to all federal, state and local government web resources and services.